Hlavní strana
METAR-TAF:

METAR-TAF

Letiště :

Versailles, Ohio, Spojené státy americké

zeměpisná šířka: 40-12-16N, zeměpisná délka: 084-31-55W, výška: 307 m

Aktuální stav počasí

Zpráva byla vytvořena před 30 minutami, v 18:10 UTC
Severozápadní vítr 16 kt s nárazy do 19 kt
Teplota 3°C
Vlhkost vzduchu 93%
Tlak 1019 hPa
Viditelnost: 16.1 km
Zataženo ve výšce 1200 ft

METAR: KVES 181810Z AUTO 31016G19KT 10SM OVC012 03/02 A3008 RMK AO2

Čas: 13:40 (18:40 UTC)


TAF: chybějící

Stav a předpovědi počasí z více než 4 000 letišť (zprávy METAR a TAF).

Červené a žluté tečky na mapě představují dostupné meteorologické stanice.

Když kurzor umístíte na tečku, zobrazí se název stanice.

Pak kliknutím zobrazíte stav a předpověď počasí.

Chcete-li změnit mapu, kliknutím na zelené tlačítko se znaménkem +mapu přiblížíte, kliknutím na zelené tlačítko se znaménkem – mapu oddálíte a kliknutím na zelené šipky přejdete na sousední mapy.


METAR-TAF: